Overview Statistics Trail Chart Weather Telemetry Raw packets
 

This is the latest recevied weather packets stored in our database for station/object SV4JYD-13. If no packets are shown the sender has not sent any weather packets the latest 10 day(s).

<< 26 27 28 29 30 31 32 >>
Time Temp. Humidity Pressure Rain* Wind** Luminosity Snow
1777406797 15.56° C 99% 1018 hPa 0 mm - - -
1777405897 16.11° C 10% - 0 mm - - -
1777404996 15.56° C 10% - 0 mm - - -
1777404096 15° C 10% - 0 mm - - -
1777403196 17.22° C 95% 1018 hPa 0 mm - - -
1777402295 16.67° C 95% 1018 hPa 0 mm - - -
1777401395 15.56° C 96% 1018 hPa 0 mm - - -
1777400495 15.56° C 95% 1017 hPa 0 mm - - -
1777399595 15.56° C 93% 1017 hPa 0 mm - - -
1777398695 15.56° C 91% 1017 hPa 0 mm - - -
1777397794 16.11° C 88% 1017 hPa 0 mm - - -
1777396894 16.67° C 84% 1017 hPa 0 mm - - -
1777395994 17.22° C 79% 1017 hPa 0 mm - - -
1777395093 17.78° C 79% 1017 hPa 0 mm - - -
1777394193 19.44° C 10% - 0 mm - - -
1777393293 20° C 10% - 0 mm - - -
1777392393 20.56° C 10% - 0 mm - - -
1777391495 13.89° C 69% 1017 hPa 0 mm - - -
1777390592 14.44° C 69% 1017 hPa 0 mm - - -
1777389692 15° C 69% 1017 hPa 0 mm - - -
1777388792 15.56° C 69% 1017 hPa 0 mm - - -
1777387891 16.11° C 69% 1017 hPa 0 mm - - -
1777386991 16.67° C 69% 1017 hPa 0 mm - - -
1777386091 17.22° C 69% 1017 hPa 0 mm - - -
1777385191 17.78° C 69% 1017 hPa 0 mm - - -

* Rain latest hour (hover to see other rain measurements)
** Current wind speed in m/s (hover to see current wind gust speed)